Theta_e
295 295 295 296 296 296 297 299 300 299 299 300 300 301 302 302 302 302 303 302 304 308 308 308 308 309 311 309 311 308 309 311 309 313 313 314 315 314 318 316 315 314 316 316 317 318 317 315 316 317 316 315 315 316
295 295 295 296 296 296 297 298 300 300 299 300 300 301 301 302 302 302 303 303 304 305 307 303 304 305 307 309 309 308 310 311 309 311 311 311 312 311 314 318 316 319 317 318 317 317 314 316 315 314 315 315 315 315
295 294 296 296 296 296 297 297 300 300 300 300 301 301 302 302 302 302 302 303 303 304 304 304 306 304 305 305 306 310 308 309 310 307 310 310 311 309 314 313 313 311 313 318 317 315 313 313 313 313 313 314 314 312
294 294 295 295 296 296 297 297 299 301 301 301 301 301 301 302 302 301 303 303 303 303 305 305 303 304 304 304 305 305 307 306 306 307 310 310 310 306 309 308 310 309 309 314 315 312 311 311 311 312 313 312 311 311
293 294 295 295 296 296 297 297 299 301 301 302 302 302 302 302 302 302 303 302 303 305 306 306 303 303 306 304 306 306 306 307 308 310 310 309 306 306 305 306 308 307 309 311 311 308 309 309 309 309 311 311 309 308
293 294 295 296 296 297 297 298 299 300 301 301 301 302 301 301 302 302 305 304 302 304 306 306 302 307 306 307 307 307 307 307 307 308 307 307 305 307 307 306 306 305 306 305 309 307 307 308 310 310 310 308 307 306
294 295 296 297 298 297 297 299 299 300 301 301 300 302 302 302 301 303 303 302 304 304 305 306 307 306 308 309 309 308 306 306 307 306 307 306 306 308 308 307 306 305 305 305 306 307 307 309 309 306 306 305 303 302
294 295 296 296 298 298 297 299 300 300 301 301 301 301 302 302 301 302 303 304 303 303 304 305 307 307 306 310 308 307 308 306 307 305 306 306 305 306 306 306 305 306 306 308 309 308 308 308 306 305 304 303 303 301
293 294 296 296 298 298 298 299 299 301 301 302 302 302 302 301 303 302 303 303 303 304 305 305 307 310 306 307 307 307 307 308 306 306 305 305 306 306 306 306 306 307 309 309 308 307 306 305 305 304 303 302 301 299
293 293 294 296 297 299 299 299 300 301 301 302 301 302 303 301 302 301 302 303 304 303 304 304 303 308 306 305 306 308 306 306 306 305 304 306 306 305 305 307 307 306 306 308 308 309 306 305 304 303 301 300 299 297
293 293 293 294 297 299 300 300 300 301 300 300 302 302 300 301 301 302 303 304 304 304 304 303 304 306 306 309 308 306 306 305 307 308 306 306 308 308 308 308 308 306 306 303 304 303 302 301 300 299 299 298 297 296
294 293 293 294 297 298 299 300 300 301 301 300 300 300 300 301 302 302 303 304 304 304 303 304 304 304 307 305 307 307 307 306 307 306 307 310 311 308 306 305 304 303 303 302 301 301 299 298 297 297 297 297 294 293
295 295 295 296 297 299 300 300 300 301 301 300 301 301 301 301 302 303 304 305 305 304 304 304 306 305 306 305 306 305 306 306 307 309 310 311 308 306 304 303 303 302 300 299 298 299 297 296 296 297 296 293 292 291
297 296 296 297 299 300 300 300 300 301 301 302 303 302 302 304 305 305 306 306 305 306 305 306 305 307 304 306 305 306 305 305 308 310 311 309 308 305 304 302 301 300 299 298 298 297 296 296 296 295 292 291 291 290
297 297 297 299 301 300 299 300 300 301 301 303 302 302 305 304 303 304 302 303 303 306 305 303 305 305 306 306 305 306 305 306 307 311 309 308 307 304 303 301 300 300 299 298 298 297 296 295 294 295 291 290 289 289
298 298 299 300 300 300 301 301 300 300 301 302 302 302 303 304 305 306 306 307 306 305 304 305 305 306 307 307 308 309 310 311 311 309 308 306 304 303 302 300 300 299 298 297 297 296 295 294 293 293 291 289 288 288
298 298 298 298 300 300 301 300 300 300 301 301 302 301 302 303 304 305 306 307 304 306 308 307 307 308 306 309 310 309 310 310 309 307 305 305 304 303 302 300 299 299 298 297 296 295 294 293 293 292 292 290 288 287
298 298 298 298 299 300 300 299 299 301 301 300 301 302 301 303 305 306 306 305 306 306 306 307 307 310 311 311 311 306 309 307 305 305 304 303 303 301 301 301 300 298 297 296 295 294 294 293 293 292 291 290 289 288
298 297 298 299 300 300 300 299 298 299 299 300 300 300 301 302 302 304 305 304 304 304 306 307 308 309 310 309 308 310 309 305 304 304 303 302 302 300 299 299 299 297 296 295 294 293 292 292 291 291 290 289 288 288
298 298 298 299 300 300 299 300 298 300 300 301 300 301 304 305 305 306 305 305 305 305 307 307 308 307 307 307 308 308 309 304 303 304 303 302 301 300 300 299 298 296 295 295 294 293 292 292 291 290 289 289 288 287
297 298 298 298 299 299 300 301 300 300 299 301 302 302 305 305 308 308 308 305 307 307 307 306 305 304 305 308 308 307 307 303 303 303 303 302 300 300 299 298 297 297 296 296 295 293 292 291 291 290 289 289 288 287
298 297 297 297 299 299 299 299 301 301 301 303 304 304 306 306 306 309 305 307 303 301 302 302 301 301 303 306 307 307 308 303 301 300 300 299 300 300 298 297 297 298 297 296 295 294 292 291 291 290 290 288 288 287
299 299 299 299 300 299 300 299 301 303 304 305 305 307 306 306 304 305 308 305 303 299 297 298 298 300 301 304 303 304 306 302 302 302 301 301 300 298 298 297 297 297 297 296 295 294 292 291 290 290 289 289 288 288
299 300 300 300 301 301 300 303 301 303 305 306 307 307 308 308 306 309 308 303 300 298 296 296 297 299 302 305 304 301 303 303 302 301 300 300 300 298 298 297 297 297 297 295 295 294 293 291 290 290 290 289 289 288
300 298 301 301 301 302 304 305 305 306 305 305 305 306 309 307 308 308 305 299 298 297 295 294 295 296 298 302 302 303 301 301 302 302 299 300 299 297 297 297 296 296 295 295 295 295 294 292 291 291 290 289 289 288
302 302 303 303 304 305 306 307 305 306 307 307 308 307 307 307 307 304 299 295 294 294 293 293 293 294 295 297 299 301 301 299 298 301 300 298 299 299 299 298 297 296 295 296 295 295 294 293 292 291 290 288 288 289
302 301 302 301 303 305 305 305 305 307 308 308 307 305 305 309 305 297 294 292 292 291 291 290 291 293 294 295 297 299 299 295 297 299 298 298 298 299 299 298 298 298 296 295 295 295 295 294 293 292 291 291 290 289
302 302 305 304 305 305 305 305 306 306 305 302 303 302 302 300 299 293 292 290 289 289 290 291 292 293 291 292 295 298 301 294 295 296 296 296 297 298 298 298 298 298 297 296 296 295 295 294 294 293 292 292 291 290
301 301 302 303 304 305 304 305 304 302 300 301 302 300 296 291 289 289 289 288 288 289 290 291 292 290 291 294 298 302 300 295 297 299 301 301 299 297 297 298 298 297 297 296 296 296 295 295 294 293 292 292 291 290
302 300 303 303 303 304 303 301 301 297 295 294 294 293 291 289 288 286 287 287 288 288 289 290 290 290 290 291 291 298 296 296 295 296 299 300 299 296 296 297 297 297 296 296 295 295 295 294 293 292 292 291 291 290
302 303 304 303 303 301 300 298 297 296 295 294 293 294 293 290 288 286 285 285 286 287 288 288 289 289 289 289 289 290 296 295 295 295 294 294 294 295 296 296 296 296 296 296 295 294 293 293 292 292 291 291 290 290
302 304 303 303 301 299 299 299 299 298 298 297 295 293 292 292 291 287 284 285 286 287 287 287 287 287 287 288 287 288 288 289 293 296 292 293 294 295 295 295 295 295 294 293 293 292 291 291 290 289 289 288 288 287
303 302 301 301 300 300 299 300 300 299 297 297 296 294 292 292 291 287 284 284 284 285 286 286 287 287 286 286 286 287 288 289 291 293 292 292 293 294 294 294 294 293 292 291 290 290 289 288 287 286 285 285 284 283
Wind_Speed
21 18 21 23 24 29 23 26 25 22 18 21 20 18 18 18 18 18 5 13 5 2 3 5 5 5 4 4 2 2 3 2 3 3 2 2 2 2 3 7 7 6 6 4 4 3 6 7 6 4 4 2 3 4
21 19 21 22 22 27 25 26 24 22 20 19 19 17 17 18 17 16 4 14 9 2 3 4 5 4 1 5 2 4 2 2 2 3 2 2 2 1 1 5 2 5 2 4 5 2 2 4 4 2 1 4 3 4
21 18 21 22 23 25 25 25 23 22 19 17 16 16 17 16 15 15 9 12 5 3 2 2 4 8 5 4 3 3 1 1 3 2 2 2 4 1 2 2 1 2 0 1 3 2 4 5 5 3 3 6 4 4
18 18 21 22 24 23 22 23 21 21 19 16 15 14 15 16 15 15 6 9 3 1 2 2 7 3 7 4 2 0 3 5 3 2 3 3 2 2 1 2 2 2 1 3 4 3 5 6 3 7 5 3 5 4
17 20 22 23 22 21 21 23 22 20 17 15 14 14 15 15 16 7 9 12 10 3 2 4 8 7 10 3 6 7 7 4 3 2 3 3 2 1 2 1 3 3 2 3 3 3 2 5 5 8 6 6 5 6
16 19 21 22 20 20 20 22 20 19 19 17 16 15 15 16 14 2 1 4 18 2 1 2 2 7 8 14 15 11 5 4 3 3 2 2 1 1 0 1 2 3 3 2 2 1 5 9 8 4 5 3 1 3
17 20 21 22 22 19 19 20 19 19 20 18 15 15 15 12 7 3 1 8 9 4 1 1 2 3 5 3 3 4 7 3 3 2 2 1 2 1 2 2 1 3 4 6 7 6 8 4 2 2 2 4 6 5
20 20 21 23 22 19 19 19 20 21 18 19 16 13 7 7 4 3 7 4 6 2 1 2 1 1 9 2 2 3 2 2 4 2 1 1 1 2 2 5 7 7 7 3 3 6 7 4 1 1 3 3 4 5
20 21 21 23 21 19 18 18 21 21 19 16 11 3 3 5 4 5 6 3 3 3 1 2 2 2 3 3 2 1 1 2 1 1 1 1 0 2 3 5 5 2 5 5 6 5 2 2 2 2 3 4 5 6
20 22 22 23 21 19 18 20 21 22 17 11 6 3 2 5 10 7 2 1 1 2 1 1 1 2 2 2 2 1 1 1 1 1 1 1 2 6 9 11 10 6 5 6 6 6 7 5 4 5 5 4 5 5
18 20 20 21 21 19 17 18 19 19 7 6 4 2 5 7 3 2 2 2 2 1 2 1 2 2 1 1 2 1 2 1 0 2 1 1 2 1 7 9 6 4 4 7 7 6 6 6 6 7 7 6 4 7
18 17 18 20 20 19 17 15 15 12 8 6 6 5 4 2 1 1 1 1 1 2 0 2 1 1 1 1 1 1 1 1 1 3 1 1 2 4 3 8 9 9 9 9 9 7 7 8 9 8 7 7 8 9
19 18 18 18 19 20 15 11 9 10 11 2 1 2 2 2 1 1 2 1 1 3 1 1 1 2 0 2 2 1 2 1 1 2 1 2 5 5 5 6 8 9 11 10 9 7 7 8 10 10 8 10 10 10
18 18 16 15 15 13 10 6 6 7 2 2 3 3 2 1 1 1 2 2 2 3 3 1 1 1 1 1 1 2 1 1 2 2 1 2 6 4 5 5 7 8 9 10 9 9 10 12 10 8 9 10 10 11
15 16 15 8 10 10 7 6 6 3 2 2 2 2 2 2 4 3 2 2 3 1 2 2 1 0 1 1 0 2 2 2 3 1 1 5 4 7 7 6 7 7 8 8 10 8 11 11 11 10 9 13 13 12
13 12 2 6 10 8 6 3 3 2 1 1 1 2 2 3 4 2 2 2 1 2 2 1 1 1 1 0 2 3 2 2 1 2 4 4 8 7 7 7 7 9 9 10 11 10 12 12 13 12 12 16 15 13
9 5 4 10 8 4 4 3 2 1 1 2 2 2 2 3 3 3 1 1 1 0 1 1 0 2 1 2 2 1 1 2 3 3 4 7 8 8 7 7 9 9 9 11 10 12 12 12 12 14 13 14 16 16
13 12 8 11 8 4 3 2 2 1 2 2 3 3 1 3 4 3 1 1 1 1 1 1 1 1 2 3 2 1 2 2 3 4 5 7 6 8 8 8 8 9 10 11 11 11 11 12 13 13 14 14 13 14
16 10 6 6 3 1 1 0 1 1 2 3 4 3 3 4 3 4 2 0 1 1 0 1 1 1 1 1 2 3 3 2 4 4 4 7 9 10 10 10 11 10 10 11 11 11 12 14 13 13 13 14 15 14
11 8 6 2 5 1 1 1 0 1 2 2 3 3 2 3 2 1 1 0 1 1 1 2 2 2 3 1 1 1 1 3 6 6 5 4 6 10 10 9 9 11 11 11 11 11 11 12 13 13 13 14 14 15
7 4 5 3 1 1 2 1 2 2 2 2 3 3 2 1 1 1 1 0 1 2 2 3 4 6 9 3 3 3 3 6 4 4 7 5 5 7 8 8 9 8 8 7 9 10 11 11 9 10 12 13 12 13
3 7 4 4 2 3 1 2 2 3 2 3 3 2 2 1 1 1 2 2 2 2 3 3 5 6 8 4 6 3 4 9 7 8 9 13 5 5 7 9 9 6 6 7 8 10 10 9 9 10 11 11 12 13
4 2 2 2 2 2 1 3 2 2 2 2 1 2 1 0 1 2 2 2 2 4 6 6 10 11 7 10 12 4 9 11 8 9 10 9 7 8 9 9 9 10 9 7 8 10 10 9 10 11 11 11 11 12
1 2 1 1 1 1 1 2 2 2 2 2 2 1 1 2 2 0 2 2 2 6 7 11 13 7 6 7 7 7 4 6 6 7 9 10 8 8 9 8 7 8 9 12 11 10 9 9 9 10 10 11 12 12
1 2 2 2 2 2 2 1 2 2 1 0 1 1 2 1 1 2 1 2 3 5 6 10 9 5 4 4 6 8 11 2 5 7 10 8 9 11 9 8 7 9 13 13 11 12 11 9 9 10 9 10 11 12
2 2 3 1 2 2 1 1 1 1 1 1 2 2 2 1 1 2 2 2 3 4 7 7 5 5 4 6 6 6 9 9 3 6 8 11 13 15 13 10 9 7 11 11 14 14 13 11 11 11 11 10 11 11
2 2 2 2 1 2 1 0 2 0 1 2 1 1 2 2 1 2 1 3 3 9 13 13 10 8 8 12 11 8 10 6 5 4 5 11 9 11 15 15 13 12 18 16 14 15 15 14 13 11 11 10 8 8
2 2 1 1 1 0 1 1 1 2 2 2 1 2 1 1 1 2 2 7 10 12 12 12 10 10 13 16 13 9 6 4 4 9 10 8 8 11 13 9 7 13 17 17 15 14 13 13 13 12 11 10 10 8
2 1 1 1 1 1 1 1 1 1 2 1 0 2 2 2 1 3 4 9 11 10 10 11 12 14 10 10 4 3 1 2 1 5 7 5 5 6 11 11 10 13 16 16 14 12 13 13 12 12 11 11 10 10
2 2 1 2 1 1 1 1 2 2 2 3 3 2 2 2 2 4 6 7 9 10 11 10 10 12 12 11 10 2 4 2 4 2 2 3 4 7 13 14 15 16 17 18 17 14 12 12 12 10 9 9 10 9
1 2 1 1 1 1 2 4 4 3 2 2 2 2 2 2 2 2 7 8 8 9 10 11 11 12 14 13 11 9 2 2 8 7 6 4 6 10 12 14 16 18 19 20 19 16 15 12 10 10 8 8 8 7
2 2 2 2 1 1 2 3 3 2 2 2 2 2 2 1 1 1 5 9 8 9 10 11 10 12 14 11 10 6 8 10 9 9 1 4 9 12 14 15 16 18 19 18 16 16 15 14 12 11 11 10 9 8
2 2 2 2 2 3 2 1 2 2 2 2 2 1 1 1 0 1 4 7 6 7 10 10 11 11 11 10 9 9 5 5 6 3 5 10 12 14 15 16 17 18 19 18 17 16 15 15 13 13 12 11 9 8
Wind_Direction
338 340 342 343 343 347 343 350 350 348 350 347 348 352 357 2 5 358 330 5 7 321 315 12 4 16 9 24 32 67 223 21 19 65 63 72 94 86 116 131 157 165 160 183 169 188 249 135 133 221 76 166 224 242
337 336 343 344 344 346 344 350 350 348 347 353 348 351 358 1 1 1 328 355 351 261 316 314 299 294 293 341 356 22 83 32 48 94 81 129 99 104 112 157 128 176 225 179 206 198 48 147 83 70 215 282 274 272
337 336 343 347 346 345 344 348 350 349 346 347 342 348 353 360 359 358 333 348 358 3 304 5 9 342 35 263 318 346 58 55 68 5 96 83 83 330 125 104 173 105 142 213 211 126 219 265 278 268 298 269 283 280
340 340 344 347 345 342 339 345 347 349 349 347 339 343 350 353 354 353 348 345 358 31 355 17 356 28 346 337 342 10 114 74 85 36 64 63 78 318 85 38 293 36 206 203 254 248 264 265 297 332 323 311 308 295
341 344 346 345 341 341 340 340 345 348 348 346 346 345 346 348 350 20 78 43 26 330 347 324 314 356 353 124 96 89 82 74 36 62 49 62 56 211 52 267 234 207 218 211 269 54 305 306 323 325 300 299 291 284
342 342 343 341 345 344 339 337 339 344 348 341 340 343 344 339 340 345 247 344 353 74 314 25 340 9 67 89 83 68 51 59 70 64 74 91 84 63 74 257 291 248 254 274 337 72 304 295 295 269 254 269 136 92
342 342 343 344 345 343 339 339 340 342 344 338 330 333 337 343 356 41 14 308 12 350 338 343 60 1 338 22 44 43 41 56 56 73 70 105 121 200 166 252 15 7 320 287 272 273 278 230 295 326 330 90 96 82
341 342 342 343 345 345 338 341 339 339 337 330 323 334 352 5 19 55 18 14 357 8 357 359 331 333 353 73 62 0 54 38 38 86 59 31 105 61 259 270 309 314 292 265 245 229 255 297 275 80 74 55 30 14
333 338 339 341 341 344 339 338 337 340 335 333 339 16 32 30 4 326 359 340 7 23 23 356 7 11 341 29 92 43 46 95 335 77 86 172 145 239 252 288 285 314 36 38 34 32 335 314 65 42 30 17 355 349
329 330 332 336 336 343 337 336 339 341 337 340 2 21 32 336 321 323 16 334 45 8 47 350 332 34 66 29 63 88 22 92 139 102 134 206 271 281 289 281 271 273 263 353 1 7 339 339 13 17 10 356 347 349
327 321 325 330 332 332 333 334 342 345 349 6 9 10 306 327 333 7 357 19 345 71 117 336 324 8 58 75 106 264 139 187 171 93 256 171 242 310 358 39 85 121 85 59 61 64 51 40 23 3 350 342 352 358
329 324 324 327 326 326 323 328 336 352 343 325 305 303 318 342 346 339 30 346 328 16 58 322 340 252 19 323 125 133 63 226 100 133 225 227 104 59 34 69 62 64 71 67 52 47 51 41 17 359 355 36 22 2
328 324 325 325 325 324 317 311 325 331 325 320 263 304 359 9 346 4 48 93 3 352 355 195 131 328 186 42 77 92 173 95 149 230 239 87 107 117 103 90 80 75 71 55 40 52 52 29 20 28 54 32 12 9
326 321 323 327 327 333 334 324 328 339 338 330 335 356 5 329 324 283 280 324 6 257 187 221 83 12 10 117 104 157 114 230 237 240 222 129 140 142 115 101 92 85 70 48 45 68 37 24 30 55 60 31 25 20
321 318 323 335 327 325 327 326 323 346 354 320 315 341 333 349 269 255 239 257 235 180 129 105 51 108 76 120 263 101 171 222 215 279 95 143 126 133 118 107 103 94 65 44 51 63 36 38 30 46 63 42 41 34
321 327 20 333 342 339 334 358 353 333 278 286 252 287 319 308 337 350 207 254 134 135 147 129 122 167 161 291 205 215 243 230 126 133 163 129 135 124 125 116 99 89 75 61 60 62 46 42 41 43 51 47 47 39
294 249 297 316 321 317 317 327 342 332 328 311 290 279 276 259 252 278 297 19 97 154 38 114 208 54 144 223 222 223 339 86 141 156 139 141 137 133 132 120 106 99 80 70 70 62 54 47 46 43 44 45 47 50
238 244 268 292 317 306 316 8 348 341 289 266 288 298 249 248 274 288 290 260 191 137 309 80 285 273 345 329 40 288 59 84 104 116 117 120 123 126 125 121 117 110 89 78 73 69 56 48 44 42 41 45 47 43
234 242 244 270 264 240 309 2 1 334 279 297 281 271 269 282 270 281 292 81 30 64 218 261 324 360 335 91 351 60 87 126 116 100 107 112 136 126 120 113 117 109 96 83 76 73 67 60 54 48 47 48 52 46
202 207 223 286 181 231 246 217 147 262 273 311 284 272 268 287 334 82 129 36 37 72 45 32 17 356 317 318 266 227 37 136 134 123 121 120 133 143 136 127 127 123 106 95 82 80 72 64 57 56 55 54 54 50
154 182 174 155 105 274 297 231 237 237 281 272 286 302 298 266 253 174 148 340 59 35 31 25 345 322 344 174 182 185 189 173 168 157 157 150 149 151 141 132 135 133 121 103 92 81 75 72 67 65 65 61 60 60
137 165 129 181 225 176 269 236 275 307 257 286 287 244 275 278 315 89 120 61 54 347 348 324 331 325 335 357 352 270 190 166 154 132 127 136 146 152 151 148 147 135 131 119 109 97 87 87 84 80 76 72 67 64
136 95 134 183 192 185 266 176 244 218 261 269 258 264 230 240 101 166 88 68 89 40 353 341 334 326 288 317 7 73 162 161 164 166 166 170 151 148 144 150 153 140 129 126 126 110 101 99 95 91 87 80 75 68
106 189 207 205 233 242 251 228 207 242 236 232 230 257 112 48 167 293 86 62 31 19 10 358 358 358 4 42 30 24 38 181 161 152 163 156 155 162 158 148 145 139 135 139 141 129 113 106 106 96 92 87 80 75
253 228 211 235 185 239 227 223 234 245 267 326 315 76 56 58 120 47 59 45 352 5 3 352 356 3 333 349 7 14 33 110 185 174 180 177 147 144 139 135 136 144 146 136 138 140 138 124 112 104 98 94 92 84
268 202 189 235 186 234 255 241 326 332 323 336 43 32 27 96 130 78 59 4 343 343 345 344 338 324 328 342 335 343 344 337 270 208 196 189 181 174 164 157 155 163 171 160 150 147 148 145 134 123 113 107 100 93
274 267 211 225 237 242 287 315 231 265 20 24 42 27 355 234 129 74 21 45 332 326 323 315 307 296 295 306 312 307 321 316 237 226 204 188 192 187 174 166 176 170 175 174 166 163 159 158 154 145 135 127 116 107
263 282 256 292 234 48 315 293 15 41 45 355 17 52 5 325 66 11 348 339 332 324 322 323 321 315 303 295 291 297 338 7 98 116 117 124 161 178 186 185 179 178 177 179 177 171 168 165 164 163 159 149 142 134
254 264 220 271 241 119 70 27 70 78 8 320 75 132 137 92 50 350 326 336 340 339 340 339 343 345 340 334 294 275 308 109 220 189 176 161 163 186 195 201 192 183 184 178 178 181 180 174 169 167 164 159 156 151
242 189 177 191 211 183 102 4 103 93 61 76 104 117 118 131 121 27 1 353 354 351 346 346 351 1 358 358 341 343 168 81 34 11 306 250 238 186 186 185 181 176 175 177 175 170 176 171 167 162 153 153 161 164
232 204 161 108 156 105 111 107 115 109 101 79 46 80 111 145 141 40 13 353 346 350 1 5 8 8 6 4 0 350 284 61 8 359 318 268 172 168 170 169 170 168 166 165 159 153 147 138 136 133 134 138 148 154
187 196 145 161 164 130 143 171 168 145 133 140 120 118 148 203 215 82 3 1 359 360 358 359 356 351 351 346 343 326 318 307 308 323 302 161 153 153 152 152 155 156 155 152 146 142 141 136 134 133 130 126 124 121
168 143 126 133 153 177 166 213 180 139 126 148 138 125 76 338 306 50 353 0 336 327 338 342 349 345 346 344 338 342 341 331 336 343 179 173 169 158 150 150 151 149 146 140 135 136 133 130 127 126 123 120 115 110